Regional Weather Roundup
Issued by NWS

Home | Current Version | Previous Version | Text Only | Print | Product List | Glossary On
Versions: 1 2 3 4 5 6 7 8 9 10 11 12 13 14 15 16 17 18 19 20 21 22 23 24 25 26 27 28 29 30 31 32 33 34 35 36 37 38 39 40 41 42 43 44 45 46 47 48 49 50
408
ASUS43 KLSX 242257
RWRMO

WEATHER SUMMARY FOR MISSOURI
NATIONAL WEATHER SERVICE SPRINGFIELD MO
600 PM CDT THU MAY 24 2018

NOTE: "FAIR" INDICATES FEW OR NO CLOUDS BELOW 12,000 FEET WITH NO
       SIGNIFICANT WEATHER AND/OR OBSTRUCTIONS TO VISIBILITY.
       CURRENT SKY AND/OR WEATHER CONDITIONS ARE NOT AVAILABLE FOR
       CHILLICOTHE AND FARMINGTON.

MOZ001>031-035>038-043-044-053-054-250000-
...NORTHERN AND WESTERN MISSOURI...

CITY           SKY/WX    TMP DP  RH WIND       PRES   REMARKS
KANSAS CTY INT LGT RAIN  72  68  87 SW8       30.01F
LEE`S SUMMIT   CLOUDY    81  69  67 S6        30.01F
ST JOSEPH      CLOUDY    80  65  59 S12       29.98S
CHILLICOTHE      N/A     86  66  51 S9        30.00F

$$
MOZ066>068-077>081-088>096-101>105-250000-
...SOUTHWEST MISSOURI...

CITY           SKY/WX    TMP DP  RH WIND       PRES   REMARKS
SPRINGFIELD    CLOUDY    83  67  58 S8        30.03F
JOPLIN         CLOUDY    79  67  66 SE10G20   30.02F
BRANSON        CLOUDY    72  66  83 S8        30.08S

$$
MOZ032>034-039>042-045>050-055>058-069>072-250000-
...CENTRAL MISSOURI...

CITY           SKY/WX    TMP DP  RH WIND       PRES   REMARKS
COLUMBIA       NOT AVBL
JEFFERSON CITY CLOUDY    84  62  47 S17       30.01S
ROLLA          MOSUNNY   84  65  52 SE6       30.05F
SEDALIA        LGT RAIN  73  66  78 S7        30.04F
WARRENSBURG    MOSUNNY   84  63  48 S7        30.01F

$$
MOZ051-052-059>065-250000-
...EAST CENTRAL MISSOURI...

CITY           SKY/WX    TMP DP  RH WIND       PRES   REMARKS
ST LOUIS INTL  MOSUNNY   87  62  43 SE12      30.03F

$$
MOZ072>076-082>087-097>100-106>115-250000-
...SOUTH CENTRAL AND SOUTHEAST MISSOURI...

CITY           SKY/WX    TMP DP  RH WIND       PRES   REMARKS
CAPE GIRARDEAU FAIR      85  63  47 SE8       30.02F
POPLAR BLUFF   FAIR      87  64  46 E3        30.02S
WEST PLAINS    CLOUDY    79  68  69 SE8       30.07S

$$




USA.gov is the U.S. government's official web portal to all federal, state and local government web resources and services.